カタログに戻る

QIANFAN-86

運用中通信PO
NORAD 63172·PAYLOAD·🇨🇳 China

打ち上げ Mar 11, 2025 から Wenchang Space Launch Site

Loading…

次のパス (今後24時間)

TLE

最新Source: Space-Track

元期: Sep 14, 2026, 21:14 UTC

1 63172U 25046P   26257.88480950  .00000067  00000-0  85057-4 0  9992
2 63172  88.9653 291.1206 0012806  60.3006 299.9418 13.51025311 84830

AllMySatでQIANFAN-86をリアルタイム追跡

Download on the App Store